This demonstration page uses our WeatherBlox Daily Observations layout. Learn more.

Left ArrowRight Arrow

34.16533, -84.80231

Hourly Observations for August 23, 2017

Temp ( °F °C ) Dew Point ( °F °C ) Humidity (%) Winds ( mph kmh ) Pressure ( in mb ) Visibility ( mi km ) Precip ( " mm )
12:53 am 00:53 Clear 76 24.4 73 22.8 91 91 Calm 29.97 1015 10 16 0.00 0.00
1:53 am 01:53 Clear 75 23.9 72 22.2 90 90 Calm 29.94 1014 10 16 0.00 0.00
2:53 am 02:53 Mostly Clear 72 22.2 71 21.7 97 97 Calm 29.94 1014 10 16 0.00 0.00
3:53 am 03:53 Clear 71 21.7 71 21.7 100 100 Calm 29.94 1014 10 16 0.00 0.00
4:53 am 04:53 Clear 71 21.7 71 21.7 100 100 Calm 29.93 1014 10 16 0.00 0.00
5:42 am 05:42 Mostly Cloudy 72 22.2 71 21.7 97 97 Calm 29.97 1015 10 16 0.00 0.00
5:53 am 05:53 Cloudy 73 22.8 72 22.2 96 96 Calm 29.93 1014 10 16 0.00 0.00
6:11 am 06:11 Partly Cloudy 72 22.2 71 21.7 97 97 Calm 29.97 1015 10 16 0.00 0.00
6:53 am 06:53 Clear 72 22.2 71 21.7 97 97 Calm 29.94 1014 10 16 0.00 0.00
7:53 am 07:53 Sunny 73 22.8 72 22.2 96 96 Calm 29.95 1014 8 13 0.00 0.00
8:53 am 08:53 Sunny 75 23.9 73 22.8 94 94 Calm 29.96 1014 10 16 0.00 0.00
9:53 am 09:53 Sunny 80 26.7 72 22.2 76 76 VRB 3 6 29.96 1014 10 16 0.00 0.00
10:19 am 10:19 Mostly Cloudy 79 26.1 72 22.2 79 79 VRB 3 6 29.97 1015 10 16 0.00 0.00
10:53 am 10:53 Mostly Cloudy 80 26.7 72 22.2 76 76 VRB 5 7 29.96 1015 10 16 0.00 0.00
11:53 am 11:53 Mostly Cloudy 83 28.3 72 22.2 70 70 VRB 5 7 29.96 1014 10 16 0.00 0.00
12:05 pm 12:05 Mostly Cloudy 84 28.9 72 22.2 67 67 VRB 3 6 29.97 1015 10 16 0.00 0.00
12:53 pm 12:53 Partly Cloudy 84 28.9 70 21.1 63 63 VRB 5 7 29.95 1014 10 16 0.00 0.00
1:53 pm 13:53 Mostly Sunny 87 30.6 69 20.6 55 55 VRB 5 7 29.93 1013 10 16 0.00 0.00
2:53 pm 14:53 Mostly Sunny 88 31.1 69 20.6 54 54 NNW 5 7 29.91 1013 10 16 0.00 0.00
3:53 pm 15:53 Sunny 89 31.7 67 19.4 48 48 VRB 6 9 29.89 1012 10 16 0.00 0.00
4:53 pm 16:53 Mostly Sunny 90 32.2 68 20 48 48 VRB 3 6 29.86 1011 10 16 0.00 0.00
5:53 pm 17:53 Mostly Sunny 88 31.1 66 18.9 48 48 VRB 6 9 29.85 1011 10 16 0.00 0.00
6:53 pm 18:53 Mostly Sunny 86 30 66 18.9 51 51 NNW 5 7 29.86 1011 10 16 0.00 0.00
7:53 pm 19:53 Sunny 81 27.2 68 20 65 65 Calm 29.86 1011 10 16 0.00 0.00
8:53 pm 20:53 Clear 76 24.4 68 20 77 77 Calm 29.87 1011 10 16 0.00 0.00
9:53 pm 21:53 Mostly Clear 76 24.4 67 19.4 74 74 Calm 29.89 1012 10 16 0.00 0.00
10:53 pm 22:53 Mostly Cloudy 74 23.3 68 20 82 82 Calm 29.90 1013 10 16 0.00 0.00
11:53 pm 23:53 Clear 71 21.7 66 18.9 84 84 Calm 29.91 1013 10 16 0.00 0.00

Powered by AerisWeather